Regional Weather Roundup
Issued by NWS Cleveland, OH

Home | Current Version | Previous Version | Text Only | Print | Product List | Glossary Off
Versions: 1 2 3 4 5 6 7 8 9 10 11 12 13 14 15 16 17 18 19 20 21 22 23 24 25 26 27 28 29 30 31 32 33 34 35 36 37 38 39 40 41 42 43 44 45 46 47 48 49 50

000
ASUS41 KCLE 241902
RWRCLE
OHIO REGIONAL WEATHER ROUNDUP
NATIONAL WEATHER SERVICE CLEVELAND, OH
200 PM EST TUE JAN 24 2017

NOTE: "FAIR" INDICATES FEW OR NO CLOUDS BELOW 12,000 FEET WITH NO
SIGNIFICANT WEATHER AND/OR OBSTRUCTIONS TO VISIBILITY.

OHZ001>008-015>018-024>027-034-035-043-044-242000-
   NORTHWEST OHIO

CITY           SKY/WX    TMP DP  RH WIND       PRES   REMARKS
DEFIANCE       CLOUDY    39  33  79 W10       29.79F
FINDLAY        CLOUDY    43  37  79 NW9       29.76F
TOLEDO EXPRESS CLOUDY    41  38  89 W13       29.76F
TOLEDO EXEC    CLOUDY    43  40  89 W14       29.76F
LIMA           CLOUDY    41  38  89 W13       29.78F
$$

OHZ009>014-019>023-028>033-038-089-242000-
   NORTHEAST OHIO

CITY           SKY/WX    TMP DP  RH WIND       PRES   REMARKS
CLE-HOPKINS    DRZL/FOG  39  36  89 W10       29.74F VSB 3/4
CLE-LAKEFRONT  FOG       36  35  96 W7        29.72F VSB 1/2
CUY CO. ARPT   FOG       36  36 100 W12       29.72F VSB 1
LORAIN-ELYRIA  CLOUDY    38  35  89 NW14      29.73F FOG
ASHTABULA      CLOUDY    34  33  96 NW7       29.70F FOG     WCI  28
AKRON-CANTON   CLOUDY    38  35  89 W10       29.70F
WOOSTER        CLOUDY    39  37  92 NW13      29.72F
MANSFIELD      CLOUDY    39  38  96 NW13      29.73F FOG
YOUNGSTOWN     LGT RAIN  36  33  89 W10       29.68F
$$

OHZ042-051>053-060>062-070>072-077>081-242000-
  SOUTHWEST OHIO

CITY           SKY/WX    TMP DP  RH WIND       PRES   REMARKS
CINC-COVINGTON CLOUDY    43  36  76 W10       29.82F
CINC-LUNKEN    CLOUDY    46  37  71 W9        29.84F
HAMILTON       CLOUDY    45  37  73 W8        29.84F
DAYTON         CLOUDY    42  37  82 W13       29.80F
WRIGHT-PAT AFB CLOUDY    43  39  88 W7        29.80F
DAYTON GENERAL CLOUDY    42  37  82 W9        29.80F
WILMINGTON     CLOUDY    40  39  97 W12       29.80F
$$

OHZ036-037-039>041-045>050-054>059-063>069-073>076-082>088-242000-
  CENTRAL AND SOUTHEAST OHIO

CITY           SKY/WX    TMP DP  RH WIND       PRES   REMARKS
COLUMBUS       CLOUDY    43  40  89 NW9       29.77S
OSU AIRPORT    CLOUDY    43  41  93 NW8       29.76F
BOLTON FIELD   CLOUDY    43  39  87 W10       29.79S
RICKENBACK AFB   N/A     42  40  94 NW7       29.78S
NEWARK         CLOUDY    43  39  86 W12       29.75F
MARION         CLOUDY    41  39  93 NW12G20   29.76F FOG
LANCASTER      CLOUDY    44  40  85 W10       29.77F
ZANESVILLE     CLOUDY    43  38  82 W10       29.74F
NEW PHILLY     NOT AVBL
$$



USA.gov is the U.S. government's official web portal to all federal, state and local government web resources and services.